Location: White Rock
(35.8256°N, 106.1876°W)
Time: 23:05:09
(UTC-07:00)

N. Korean satellite - Visible Passes

Search period start: 23 January 2019 00:00
Search period end: 02 February 2019 00:00
Orbit: 458 x 509 km, 97.2° (Epoch: 22 January)

Date Brightness Start Highest point End Pass type
(mag) Time Alt. Az. Time Alt. Az. Time Alt. Az.
23 Jan 7.0 06:08:06 10° NNE 06:11:45 65° E 06:15:20 10° S visible
23 Jan 9.2 18:14:33 10° SSW 18:17:38 26° W 18:20:46 10° NW visible
24 Jan 8.8 05:43:50 10° NE 05:47:03 28° E 05:50:11 10° SSE visible
24 Jan 7.5 17:49:18 10° S 17:52:54 57° W 17:56:34 10° NNW visible
25 Jan 10.0 05:20:18 10° ENE 05:22:14 14° E 05:24:08 10° SE visible
26 Jan 6.5 06:27:31 10° N 06:31:09 63° WNW 06:34:41 10° SSW visible
26 Jan 10.0 18:35:03 10° SW 18:37:09 15° W 18:39:16 10° WNW visible
27 Jan 7.4 06:02:54 10° NNE 06:06:30 54° E 06:09:59 10° S visible
27 Jan 8.9 18:09:05 10° SSW 18:12:21 30° W 18:15:40 10° NW visible
28 Jan 9.1 05:38:44 10° NE 05:41:44 24° E 05:44:41 10° SSE visible
29 Jan 10.2 05:15:36 10° ENE 05:16:54 12° E 05:18:11 10° ESE visible
30 Jan 6.5 06:22:15 10° N 06:25:52 76° WNW 06:29:23 10° SSW visible
30 Jan 9.9 18:29:22 10° SW 18:31:50 17° W 18:34:20 10° NW visible
31 Jan 7.8 05:57:42 10° NNE 06:01:11 45° E 06:04:34 10° S visible
31 Jan 8.6 18:03:38 10° SSW 18:07:03 35° W 18:10:30 10° NNW visible
01 Feb 9.4 05:33:38 10° NE 05:36:24 21° E 05:39:07 10° SE visible
